Wetterdaten: Donnerstag, 16.06.2016
Datum Zeit Auen-Temp. Temp gefhlt Luftfeuchte Luftdruck Regen Wind Richtung Richtung Sonnenschein Taupunkt Windben
16.06.2016 00:00 10,5 C 10,4 C 85 % 1007,2 hPa 0,0 mm 0,0 km/h (0 Bft) SW 225 0 min 8,1 C 0,0 km/h (0 Bft)
16.06.2016 00:05 10,6 C 10,5 C 85 % 1007,2 hPa 0,0 mm 0,0 km/h (0 Bft) O-SO 112 0 min 8,2 C 0,0 km/h (0 Bft)
16.06.2016 00:10 10,6 C 10,5 C 86 % 1007,2 hPa 0,0 mm 0,0 km/h (0 Bft) O 90 0 min 8,4 C 0,0 km/h (0 Bft)
16.06.2016 00:15 10,6 C 10,5 C 86 % 1007,1 hPa 0,0 mm 0,0 km/h (0 Bft) N 360 0 min 8,4 C 0,0 km/h (0 Bft)
16.06.2016 00:20 10,6 C 10,5 C 86 % 1007,1 hPa 0,0 mm 0,0 km/h (0 Bft) N-NW 337 0 min 8,4 C 0,0 km/h (0 Bft)
16.06.2016 00:21 10,6 C 10,5 C 86 % 1007,1 hPa 0,0 mm 0,0 km/h (0 Bft) NW 315 0 min 8,4 C 0,0 km/h (0 Bft)
16.06.2016 00:22 10,6 C 10,5 C 86 % 1007,1 hPa 0,0 mm 0,0 km/h (0 Bft) NW 315 0 min 8,4 C 0,0 km/h (0 Bft)
16.06.2016 00:25 10,6 C 10,5 C 86 % 1007,1 hPa 0,0 mm 0,0 km/h (0 Bft) NW 315 0 min 8,4 C 0,0 km/h (0 Bft)
16.06.2016 00:30 10,6 C 10,6 C 86 % 1007,1 hPa 0,0 mm 0,0 km/h (0 Bft) NO 45 0 min 8,4 C 0,0 km/h (0 Bft)
16.06.2016 00:35 10,6 C 10,6 C 86 % 1007,1 hPa 0,0 mm 0,0 km/h (0 Bft) N 360 0 min 8,4 C 0,0 km/h (0 Bft)
16.06.2016 00:40 10,7 C 10,6 C 86 % 1007,1 hPa 0,0 mm 0,0 km/h (0 Bft) W 270 0 min 8,5 C 0,0 km/h (0 Bft)
16.06.2016 00:45 10,7 C 10,6 C 86 % 1007,1 hPa 0,0 mm 0,0 km/h (0 Bft) N-NW 337 0 min 8,5 C 0,0 km/h (0 Bft)
16.06.2016 00:50 10,7 C 10,6 C 86 % 1007,1 hPa 0,0 mm 0,0 km/h (0 Bft) NW 315 0 min 8,5 C 0,0 km/h (0 Bft)
16.06.2016 00:55 10,6 C 10,5 C 86 % 1006,9 hPa 0,0 mm 0,0 km/h (0 Bft) NO 45 0 min 8,4 C 0,0 km/h (0 Bft)
16.06.2016 01:00 10,6 C 10,4 C 86 % 1006,9 hPa 0,0 mm 0,0 km/h (0 Bft) O-SO 112 0 min 8,4 C 0,0 km/h (0 Bft)
16.06.2016 01:05 10,5 C 10,4 C 86 % 1006,9 hPa 0,0 mm 0,0 km/h (0 Bft) N-NO 22 0 min 8,3 C 0,0 km/h (0 Bft)
16.06.2016 01:10 10,5 C 10,3 C 86 % 1006,9 hPa 0,0 mm 0,3 km/h (0 Bft) NO 45 0 min 8,3 C 0,0 km/h (0 Bft)
16.06.2016 01:15 10,4 C 10,3 C 86 % 1006,6 hPa 0,0 mm 0,3 km/h (0 Bft) NW 315 0 min 8,2 C 0,0 km/h (0 Bft)
16.06.2016 01:20 10,4 C 10,2 C 86 % 1006,6 hPa 0,0 mm 0,3 km/h (0 Bft) NO 45 0 min 8,2 C 0,0 km/h (0 Bft)
16.06.2016 01:25 10,3 C 10,1 C 86 % 1006,6 hPa 0,0 mm 0,0 km/h (0 Bft) O-NO 67 0 min 8,1 C 0,0 km/h (0 Bft)
16.06.2016 01:30 10,3 C 10,1 C 86 % 1006,6 hPa 0,0 mm 0,0 km/h (0 Bft) N-NO 22 0 min 8,1 C 0,0 km/h (0 Bft)
16.06.2016 01:35 10,2 C 10,1 C 86 % 1006,6 hPa 0,0 mm 0,3 km/h (0 Bft) W-SW 247 0 min 8,0 C 6,0 km/h (2 Bft)
16.06.2016 01:40 10,2 C 10,1 C 86 % 1006,6 hPa 0,0 mm 0,3 km/h (0 Bft) NO 45 0 min 8,0 C 0,0 km/h (0 Bft)
16.06.2016 01:45 10,2 C 10,0 C 86 % 1006,6 hPa 0,0 mm 0,3 km/h (0 Bft) NW 315 0 min 8,0 C 0,0 km/h (0 Bft)
16.06.2016 01:50 10,1 C 10,0 C 86 % 1006,6 hPa 0,0 mm 0,0 km/h (0 Bft) W-NW 292 0 min 7,9 C 0,0 km/h (0 Bft)
16.06.2016 01:55 10,1 C 10,0 C 86 % 1006,4 hPa 0,0 mm 0,0 km/h (0 Bft) N-NW 337 0 min 7,9 C 0,0 km/h (0 Bft)
16.06.2016 02:00 10,1 C 10,0 C 86 % 1006,4 hPa 0,0 mm 0,0 km/h (0 Bft) O-NO 67 0 min 7,9 C 0,0 km/h (0 Bft)
16.06.2016 02:05 10,1 C 10,0 C 86 % 1006,4 hPa 0,0 mm 0,0 km/h (0 Bft) N 360 0 min 7,9 C 0,0 km/h (0 Bft)
16.06.2016 02:10 10,1 C 10,0 C 86 % 1006,4 hPa 0,0 mm 0,0 km/h (0 Bft) N-NO 22 0 min 7,9 C 0,0 km/h (0 Bft)
16.06.2016 02:15 10,1 C 10,0 C 86 % 1006,0 hPa 0,0 mm 0,0 km/h (0 Bft) N-NO 22 0 min 7,9 C 0,0 km/h (0 Bft)
16.06.2016 02:20 10,1 C 10,1 C 86 % 1006,0 hPa 0,0 mm 0,0 km/h (0 Bft) S 180 0 min 7,9 C 0,0 km/h (0 Bft)
16.06.2016 02:25 10,1 C 10,1 C 86 % 1006,0 hPa 0,0 mm 0,0 km/h (0 Bft) N-NO 22 0 min 7,9 C 0,0 km/h (0 Bft)
16.06.2016 02:30 10,2 C 10,1 C 86 % 1006,0 hPa 0,0 mm 0,0 km/h (0 Bft) N-NO 22 0 min 8,0 C 0,0 km/h (0 Bft)
16.06.2016 02:35 10,2 C 10,1 C 86 % 1005,9 hPa 0,0 mm 0,0 km/h (0 Bft) O-SO 112 0 min 8,0 C 0,0 km/h (0 Bft)
16.06.2016 02:40 10,2 C 10,1 C 86 % 1005,9 hPa 0,0 mm 0,0 km/h (0 Bft) NW 315 0 min 8,0 C 0,0 km/h (0 Bft)
16.06.2016 02:45 10,2 C 10,2 C 86 % 1005,9 hPa 0,0 mm 0,0 km/h (0 Bft) O-SO 112 0 min 8,0 C 0,0 km/h (0 Bft)
16.06.2016 02:50 10,3 C 10,2 C 86 % 1005,9 hPa 0,0 mm 0,0 km/h (0 Bft) O-SO 112 0 min 8,1 C 0,0 km/h (0 Bft)
16.06.2016 02:55 10,2 C 10,2 C 86 % 1005,9 hPa 0,0 mm 0,0 km/h (0 Bft) W-SW 247 0 min 8,0 C 0,0 km/h (0 Bft)
16.06.2016 03:00 10,3 C 10,2 C 86 % 1005,9 hPa 0,0 mm 0,0 km/h (0 Bft) O-SO 112 0 min 8,1 C 0,0 km/h (0 Bft)
16.06.2016 03:05 10,3 C 10,2 C 86 % 1005,9 hPa 0,0 mm 0,0 km/h (0 Bft) S 180 0 min 8,1 C 0,0 km/h (0 Bft)
16.06.2016 03:10 10,3 C 10,2 C 86 % 1005,9 hPa 0,0 mm 0,0 km/h (0 Bft) NO 45 0 min 8,1 C 0,0 km/h (0 Bft)
16.06.2016 03:15 10,3 C 10,2 C 86 % 1005,8 hPa 0,7 mm 0,0 km/h (0 Bft) N-NW 337 0 min 8,1 C 0,0 km/h (0 Bft)
16.06.2016 03:20 10,2 C 10,2 C 86 % 1005,8 hPa 0,0 mm 0,0 km/h (0 Bft) O-NO 67 0 min 8,0 C 0,0 km/h (0 Bft)
16.06.2016 03:21 10,2 C 10,2 C 86 % 1005,8 hPa 0,0 mm 0,0 km/h (0 Bft) N-NW 337 0 min 8,0 C 0,0 km/h (0 Bft)
16.06.2016 03:23 10,2 C 10,2 C 86 % 1005,8 hPa 0,0 mm 0,0 km/h (0 Bft) N-NW 337 0 min 8,0 C 0,0 km/h (0 Bft)
16.06.2016 03:25 10,2 C 10,2 C 86 % 1005,8 hPa 0,0 mm 0,0 km/h (0 Bft) N-NW 337 0 min 8,0 C 0,0 km/h (0 Bft)
16.06.2016 03:30 10,2 C 10,2 C 86 % 1005,8 hPa 0,0 mm 0,0 km/h (0 Bft) O-NO 67 0 min 8,0 C 0,0 km/h (0 Bft)
16.06.2016 03:35 10,2 C 10,1 C 86 % 1005,4 hPa 0,0 mm 0,0 km/h (0 Bft) O-SO 112 0 min 8,0 C 0,0 km/h (0 Bft)
16.06.2016 03:40 10,2 C 10,1 C 86 % 1005,4 hPa 0,0 mm 0,0 km/h (0 Bft) S-SO 157 0 min 8,0 C 0,0 km/h (0 Bft)
16.06.2016 03:45 10,1 C 10,0 C 86 % 1005,4 hPa 0,0 mm 0,0 km/h (0 Bft) W 270 0 min 7,9 C 0,0 km/h (0 Bft)
16.06.2016 03:50 10,1 C 10,0 C 86 % 1005,4 hPa 0,0 mm 0,0 km/h (0 Bft) NO 45 0 min 7,9 C 0,0 km/h (0 Bft)
16.06.2016 03:55 10,1 C 10,0 C 86 % 1005,3 hPa 0,0 mm 0,0 km/h (0 Bft) NO 45 0 min 7,9 C 0,0 km/h (0 Bft)
16.06.2016 04:00 10,1 C 10,0 C 86 % 1005,3 hPa 0,0 mm 0,0 km/h (0 Bft) SO 135 0 min 7,9 C 0,0 km/h (0 Bft)
16.06.2016 04:05 10,2 C 10,0 C 86 % 1005,3 hPa 0,0 mm 0,0 km/h (0 Bft) S 180 0 min 8,0 C 0,0 km/h (0 Bft)
16.06.2016 04:10 10,2 C 10,1 C 86 % 1005,3 hPa 0,0 mm 0,0 km/h (0 Bft) S-SW 202 0 min 8,0 C 0,0 km/h (0 Bft)
16.06.2016 04:15 10,2 C 10,1 C 86 % 1005,2 hPa 0,0 mm 0,0 km/h (0 Bft) S 180 0 min 8,0 C 0,0 km/h (0 Bft)
16.06.2016 04:20 10,2 C 10,1 C 86 % 1005,2 hPa 0,0 mm 0,0 km/h (0 Bft) O-SO 112 0 min 8,0 C 0,0 km/h (0 Bft)
16.06.2016 04:25 10,2 C 10,1 C 86 % 1005,2 hPa 0,0 mm 0,0 km/h (0 Bft) N-NO 22 0 min 8,0 C 0,0 km/h (0 Bft)
16.06.2016 04:30 10,2 C 10,1 C 86 % 1005,2 hPa 0,0 mm 0,0 km/h (0 Bft) SW 225 0 min 8,0 C 0,0 km/h (0 Bft)
16.06.2016 04:35 10,2 C 10,0 C 86 % 1004,9 hPa 0,0 mm 0,0 km/h (0 Bft) O-SO 112 0 min 8,0 C 0,0 km/h (0 Bft)
16.06.2016 04:40 10,2 C 10,0 C 86 % 1004,9 hPa 0,0 mm 0,3 km/h (0 Bft) O-NO 67 0 min 8,0 C 0,0 km/h (0 Bft)
16.06.2016 04:45 10,2 C 10,1 C 86 % 1004,9 hPa 0,0 mm 0,3 km/h (0 Bft) S 180 0 min 8,0 C 0,0 km/h (0 Bft)
16.06.2016 04:50 10,2 C 10,0 C 86 % 1004,9 hPa 0,0 mm 0,0 km/h (0 Bft) SW 225 0 min 8,0 C 0,0 km/h (0 Bft)
16.06.2016 04:55 10,2 C 9,9 C 86 % 1004,8 hPa 0,0 mm 0,0 km/h (0 Bft) W 270 0 min 8,0 C 0,0 km/h (0 Bft)
16.06.2016 05:00 10,2 C 9,9 C 86 % 1004,8 hPa 0,0 mm 0,0 km/h (0 Bft) W-NW 292 0 min 8,0 C 0,0 km/h (0 Bft)
16.06.2016 05:05 10,2 C 9,8 C 86 % 1004,8 hPa 0,0 mm 0,0 km/h (0 Bft) O-NO 67 0 min 8,0 C 0,0 km/h (0 Bft)
16.06.2016 05:10 10,2 C 9,8 C 86 % 1004,8 hPa 0,0 mm 0,0 km/h (0 Bft) N-NO 22 0 min 8,0 C 0,0 km/h (0 Bft)
16.06.2016 05:15 10,2 C 9,8 C 86 % 1004,8 hPa 0,0 mm 0,0 km/h (0 Bft) O-NO 67 0 min 8,0 C 0,0 km/h (0 Bft)
16.06.2016 05:20 10,2 C 9,7 C 86 % 1004,8 hPa 0,0 mm 0,0 km/h (0 Bft) O-NO 67 0 min 8,0 C 0,0 km/h (0 Bft)
16.06.2016 05:25 10,2 C 9,7 C 86 % 1004,8 hPa 0,0 mm 0,0 km/h (0 Bft) SO 135 0 min 8,0 C 0,0 km/h (0 Bft)
16.06.2016 05:30 10,2 C 9,7 C 86 % 1004,8 hPa 0,0 mm 0,0 km/h (0 Bft) O-SO 112 0 min 8,0 C 0,0 km/h (0 Bft)
16.06.2016 05:35 10,2 C 9,8 C 86 % 1004,7 hPa 0,0 mm 0,0 km/h (0 Bft) S 180 0 min 8,0 C 0,0 km/h (0 Bft)
16.06.2016 05:40 10,2 C 9,8 C 86 % 1004,7 hPa 0,0 mm 0,0 km/h (0 Bft) O-NO 67 0 min 8,0 C 0,0 km/h (0 Bft)
16.06.2016 05:45 10,2 C 9,8 C 86 % 1004,7 hPa 0,0 mm 0,0 km/h (0 Bft) O-NO 67 0 min 8,0 C 0,0 km/h (0 Bft)
16.06.2016 05:50 10,2 C 9,8 C 86 % 1004,7 hPa 0,0 mm 0,0 km/h (0 Bft) O-NO 67 0 min 8,0 C 0,0 km/h (0 Bft)
16.06.2016 05:55 10,2 C 9,9 C 86 % 1004,7 hPa 0,0 mm 0,0 km/h (0 Bft) O 90 0 min 8,0 C 0,0 km/h (0 Bft)
16.06.2016 06:00 10,2 C 9,9 C 86 % 1004,7 hPa 0,0 mm 0,0 km/h (0 Bft) S-SO 157 0 min 8,0 C 0,0 km/h (0 Bft)
16.06.2016 06:05 10,2 C 9,9 C 86 % 1004,7 hPa 0,0 mm 0,0 km/h (0 Bft) S-SO 157 0 min 8,0 C 0,0 km/h (0 Bft)
16.06.2016 06:10 10,0 C 9,9 C 87 % 1004,7 hPa 0,0 mm 0,0 km/h (0 Bft) W-NW 292 0 min 7,9 C 0,0 km/h (0 Bft)
16.06.2016 06:15 10,0 C 10,0 C 87 % 1004,5 hPa 0,0 mm 0,0 km/h (0 Bft) S 180 0 min 7,9 C 0,0 km/h (0 Bft)
16.06.2016 06:20 10,0 C 10,1 C 87 % 1004,5 hPa 0,0 mm 0,0 km/h (0 Bft) S 180 0 min 7,9 C 0,0 km/h (0 Bft)
16.06.2016 06:21 10,1 C 10,2 C 87 % 1004,5 hPa 0,0 mm 0,0 km/h (0 Bft) W-SW 247 0 min 8,0 C 0,0 km/h (0 Bft)
16.06.2016 06:24 10,1 C 10,2 C 87 % 1004,5 hPa 0,0 mm 0,0 km/h (0 Bft) W-SW 247 0 min 8,0 C 0,0 km/h (0 Bft)
16.06.2016 06:25 10,1 C 10,2 C 87 % 1004,5 hPa 0,0 mm 0,0 km/h (0 Bft) W-SW 247 0 min 8,0 C 0,0 km/h (0 Bft)
16.06.2016 06:30 10,3 C 10,4 C 87 % 1004,5 hPa 0,0 mm 0,0 km/h (0 Bft) O-NO 67 0 min 8,2 C 0,0 km/h (0 Bft)
16.06.2016 06:35 10,4 C 10,7 C 87 % 1004,4 hPa 0,0 mm 0,0 km/h (0 Bft) SO 135 0 min 8,3 C 0,0 km/h (0 Bft)
16.06.2016 06:40 10,5 C 10,7 C 87 % 1004,4 hPa 0,0 mm 0,0 km/h (0 Bft) NO 45 0 min 8,4 C 0,0 km/h (0 Bft)
16.06.2016 06:45 10,7 C 11,3 C 87 % 1004,4 hPa 0,0 mm 0,0 km/h (0 Bft) SO 135 0 min 8,6 C 0,0 km/h (0 Bft)
16.06.2016 06:50 10,9 C 12,0 C 87 % 1004,4 hPa 0,0 mm 0,0 km/h (0 Bft) SO 135 0 min 8,8 C 0,0 km/h (0 Bft)
16.06.2016 06:55 11,9 C 14,5 C 87 % 1004,2 hPa 0,0 mm 0,0 km/h (0 Bft) N-NW 337 0 min 9,8 C 0,0 km/h (0 Bft)
16.06.2016 07:00 12,8 C 16,6 C 87 % 1004,2 hPa 0,0 mm 0,0 km/h (0 Bft) N 360 5 min 10,7 C 0,0 km/h (0 Bft)
16.06.2016 07:05 13,2 C 19,1 C 86 % 1004,2 hPa 0,0 mm 0,0 km/h (0 Bft) NO 45 5 min 10,9 C 0,0 km/h (0 Bft)
16.06.2016 07:10 13,9 C 20,4 C 86 % 1004,2 hPa 0,0 mm 0,0 km/h (0 Bft) N-NO 22 5 min 11,6 C 0,0 km/h (0 Bft)
16.06.2016 07:15 14,6 C 21,9 C 85 % 1004,1 hPa 0,0 mm 0,0 km/h (0 Bft) N-NO 22 5 min 12,1 C 0,0 km/h (0 Bft)
16.06.2016 07:20 14,9 C 22,7 C 84 % 1004,1 hPa 0,0 mm 0,0 km/h (0 Bft) N 360 5 min 12,2 C 0,0 km/h (0 Bft)
16.06.2016 07:25 14,9 C 23,5 C 83 % 1004,1 hPa 0,0 mm 0,0 km/h (0 Bft) O-NO 67 5 min 12,0 C 0,0 km/h (0 Bft)
16.06.2016 07:30 15,1 C 24,0 C 81 % 1004,1 hPa 0,0 mm 0,0 km/h (0 Bft) O-NO 67 5 min 11,9 C 0,0 km/h (0 Bft)
16.06.2016 07:35 14,9 C 23,6 C 79 % 1004,2 hPa 0,0 mm 0,0 km/h (0 Bft) O-NO 67 5 min 11,3 C 0,0 km/h (0 Bft)
16.06.2016 07:40 15,2 C 23,9 C 79 % 1004,2 hPa 0,0 mm 0,0 km/h (0 Bft) NO 45 5 min 11,6 C 0,0 km/h (0 Bft)
16.06.2016 07:45 15,4 C 23,6 C 77 % 1004,2 hPa 0,0 mm 0,9 km/h (0 Bft) N-NW 337 5 min 11,4 C 10,1 km/h (2 Bft)
16.06.2016 07:50 15,4 C 22,5 C 77 % 1004,2 hPa 0,0 mm 1,2 km/h (1 Bft) NO 45 5 min 11,4 C 0,0 km/h (0 Bft)
16.06.2016 07:55 15,3 C 21,6 C 77 % 1004,1 hPa 0,0 mm 0,6 km/h (0 Bft) NO 45 5 min 11,3 C 0,0 km/h (0 Bft)
16.06.2016 08:00 15,5 C 21,4 C 76 % 1004,1 hPa 0,0 mm 3,0 km/h (1 Bft) N-NW 337 5 min 11,3 C 5,7 km/h (1 Bft)
16.06.2016 08:05 15,7 C 21,7 C 76 % 1004,1 hPa 0,0 mm 5,7 km/h (1 Bft) NO 45 5 min 11,5 C 12,8 km/h (3 Bft)
16.06.2016 08:10 15,8 C 21,5 C 76 % 1004,1 hPa 0,0 mm 5,4 km/h (1 Bft) N-NO 22 5 min 11,6 C 6,3 km/h (2 Bft)
16.06.2016 08:15 15,7 C 21,1 C 75 % 1003,9 hPa 0,0 mm 6,3 km/h (2 Bft) N 360 5 min 11,3 C 13,1 km/h (3 Bft)
16.06.2016 08:20 15,7 C 20,5 C 76 % 1003,9 hPa 0,0 mm 6,3 km/h (2 Bft) O-NO 67 5 min 11,5 C 8,3 km/h (2 Bft)
16.06.2016 08:25 16,1 C 21,4 C 74 % 1003,9 hPa 0,0 mm 6,0 km/h (2 Bft) NW 315 5 min 11,5 C 4,8 km/h (1 Bft)
16.06.2016 08:30 16,3 C 22,0 C 74 % 1003,9 hPa 0,0 mm 5,4 km/h (1 Bft) O-NO 67 5 min 11,7 C 3,6 km/h (1 Bft)
16.06.2016 08:35 16,2 C 21,5 C 73 % 1003,7 hPa 0,0 mm 6,0 km/h (2 Bft) N-NO 22 5 min 11,4 C 18,5 km/h (3 Bft)
16.06.2016 08:40 15,9 C 20,6 C 73 % 1003,7 hPa 0,0 mm 7,2 km/h (2 Bft) O 90 5 min 11,1 C 14,0 km/h (3 Bft)
16.06.2016 08:45 15,7 C 19,4 C 74 % 1003,7 hPa 0,0 mm 7,5 km/h (2 Bft) N-NO 22 5 min 11,1 C 9,5 km/h (2 Bft)
16.06.2016 08:50 15,7 C 19,2 C 73 % 1003,7 hPa 0,0 mm 8,3 km/h (2 Bft) N-NO 22 5 min 10,9 C 16,1 km/h (3 Bft)
16.06.2016 08:55 15,9 C 19,3 C 73 % 1003,9 hPa 0,0 mm 8,3 km/h (2 Bft) O-NO 67 5 min 11,1 C 4,8 km/h (1 Bft)
16.06.2016 09:00 16,1 C 19,8 C 72 % 1003,9 hPa 0,0 mm 8,9 km/h (2 Bft) N-NO 22 5 min 11,0 C 17,3 km/h (3 Bft)
16.06.2016 09:05 15,9 C 19,4 C 73 % 1003,9 hPa 0,0 mm 10,1 km/h (2 Bft) O 90 5 min 11,1 C 22,1 km/h (4 Bft)
16.06.2016 09:10 15,9 C 19,3 C 74 % 1003,9 hPa 0,0 mm 9,2 km/h (2 Bft) NO 45 5 min 11,3 C 12,8 km/h (3 Bft)
16.06.2016 09:15 16,1 C 19,4 C 74 % 1003,8 hPa 0,0 mm 5,1 km/h (1 Bft) NO 45 5 min 11,5 C 9,8 km/h (2 Bft)
16.06.2016 09:20 16,0 C 19,6 C 73 % 1003,8 hPa 0,0 mm 4,8 km/h (1 Bft) NO 45 5 min 11,2 C 8,9 km/h (2 Bft)
16.06.2016 09:21 15,7 C 19,0 C 74 % 1003,8 hPa 0,0 mm 8,3 km/h (2 Bft) N-NW 337 1 min 11,1 C 12,2 km/h (2 Bft)
16.06.2016 09:25 15,7 C 19,0 C 74 % 1003,8 hPa 0,0 mm 8,3 km/h (2 Bft) N-NW 337 4 min 11,1 C 12,2 km/h (2 Bft)
16.06.2016 09:30 15,7 C 18,8 C 74 % 1003,8 hPa 0,0 mm 8,3 km/h (2 Bft) NO 45 5 min 11,1 C 12,8 km/h (3 Bft)
16.06.2016 09:35 16,0 C 19,0 C 74 % 1003,7 hPa 0,0 mm 7,2 km/h (2 Bft) NO 45 5 min 11,4 C 8,6 km/h (2 Bft)
16.06.2016 09:40 16,1 C 19,4 C 74 % 1003,7 hPa 0,0 mm 6,3 km/h (2 Bft) O-NO 67 5 min 11,5 C 6,0 km/h (2 Bft)
16.06.2016 09:45 16,5 C 20,3 C 74 % 1003,7 hPa 0,0 mm 5,4 km/h (1 Bft) N-NO 22 5 min 11,8 C 9,8 km/h (2 Bft)
16.06.2016 09:50 16,6 C 20,5 C 74 % 1003,7 hPa 0,0 mm 7,2 km/h (2 Bft) N-NO 22 5 min 11,9 C 17,6 km/h (3 Bft)
16.06.2016 09:55 16,7 C 20,8 C 74 % 1003,2 hPa 0,0 mm 9,2 km/h (2 Bft) NO 45 5 min 12,0 C 11,9 km/h (2 Bft)
16.06.2016 10:00 16,6 C 20,4 C 74 % 1003,2 hPa 0,0 mm 11,0 km/h (2 Bft) NO 45 5 min 11,9 C 10,4 km/h (2 Bft)
16.06.2016 10:05 17,2 C 21,1 C 74 % 1003,2 hPa 0,0 mm 11,3 km/h (2 Bft) N-NO 22 5 min 12,5 C 24,1 km/h (4 Bft)
16.06.2016 10:10 17,4 C 21,7 C 74 % 1003,2 hPa 0,0 mm 10,7 km/h (2 Bft) NO 45 5 min 12,7 C 13,7 km/h (3 Bft)
16.06.2016 10:15 17,6 C 21,6 C 74 % 1003,2 hPa 0,0 mm 10,7 km/h (2 Bft) NO 45 5 min 12,9 C 18,8 km/h (3 Bft)
16.06.2016 10:20 17,5 C 21,2 C 72 % 1003,2 hPa 0,0 mm 10,7 km/h (2 Bft) O 90 5 min 12,4 C 13,4 km/h (3 Bft)
16.06.2016 10:25 17,7 C 21,2 C 73 % 1003,2 hPa 0,0 mm 11,3 km/h (2 Bft) O-NO 67 5 min 12,8 C 10,4 km/h (2 Bft)
16.06.2016 10:30 18,3 C 21,8 C 73 % 1003,2 hPa 0,0 mm 8,3 km/h (2 Bft) O-NO 67 5 min 13,4 C 9,5 km/h (2 Bft)
16.06.2016 10:35 18,7 C 23,1 C 70 % 1003,4 hPa 0,0 mm 8,9 km/h (2 Bft) O-NO 67 5 min 13,1 C 16,7 km/h (3 Bft)
16.06.2016 10:40 18,8 C 23,5 C 70 % 1003,4 hPa 0,0 mm 9,8 km/h (2 Bft) W 270 5 min 13,2 C 5,4 km/h (1 Bft)
16.06.2016 10:45 19,2 C 24,5 C 70 % 1003,4 hPa 0,0 mm 8,9 km/h (2 Bft) W-SW 247 5 min 13,6 C 17,0 km/h (3 Bft)
16.06.2016 10:50 19,6 C 25,0 C 69 % 1003,4 hPa 0,0 mm 6,3 km/h (2 Bft) N-NW 337 5 min 13,8 C 0,0 km/h (0 Bft)
16.06.2016 10:55 20,3 C 26,2 C 69 % 1004,0 hPa 0,0 mm 3,0 km/h (1 Bft) N 360 5 min 14,4 C 0,0 km/h (0 Bft)
16.06.2016 11:00 20,3 C 26,5 C 67 % 1004,0 hPa 0,0 mm 3,9 km/h (1 Bft) N-NO 22 5 min 14,0 C 7,2 km/h (2 Bft)
16.06.2016 11:05 20,7 C 27,0 C 68 % 1004,0 hPa 0,0 mm 4,2 km/h (1 Bft) N 360 5 min 14,6 C 0,0 km/h (0 Bft)
16.06.2016 11:10 20,7 C 26,9 C 68 % 1004,0 hPa 0,0 mm 6,9 km/h (2 Bft) NW 315 5 min 14,6 C 22,9 km/h (4 Bft)
16.06.2016 11:15 20,2 C 25,2 C 67 % 1004,5 hPa 0,0 mm 12,2 km/h (2 Bft) NW 315 5 min 13,9 C 32,2 km/h (5 Bft)
16.06.2016 11:20 20,0 C 24,9 C 67 % 1004,5 hPa 0,0 mm 13,1 km/h (3 Bft) W-SW 247 5 min 13,7 C 8,9 km/h (2 Bft)
16.06.2016 11:25 19,8 C 24,9 C 67 % 1004,5 hPa 0,0 mm 13,4 km/h (3 Bft) W 270 5 min 13,5 C 38,7 km/h (5 Bft)
16.06.2016 11:30 19,5 C 23,9 C 67 % 1004,5 hPa 0,0 mm 13,4 km/h (3 Bft) W-SW 247 5 min 13,2 C 13,7 km/h (3 Bft)
16.06.2016 11:35 20,1 C 24,5 C 66 % 1004,8 hPa 0,0 mm 12,2 km/h (2 Bft) W 270 5 min 13,5 C 16,7 km/h (3 Bft)
16.06.2016 11:40 19,9 C 24,6 C 66 % 1004,8 hPa 0,0 mm 11,3 km/h (2 Bft) W-NW 292 5 min 13,4 C 11,0 km/h (2 Bft)
16.06.2016 11:45 20,0 C 24,3 C 66 % 1004,8 hPa 0,0 mm 14,6 km/h (3 Bft) NW 315 5 min 13,4 C 22,4 km/h (4 Bft)
16.06.2016 11:50 20,1 C 24,1 C 65 % 1004,8 hPa 0,0 mm 14,6 km/h (3 Bft) NW 315 0 min 13,3 C 22,7 km/h (4 Bft)
16.06.2016 11:55 20,3 C 24,6 C 64 % 1005,1 hPa 0,0 mm 14,9 km/h (3 Bft) W 270 5 min 13,3 C 39,9 km/h (6 Bft)
16.06.2016 12:00 20,2 C 24,3 C 64 % 1005,1 hPa 0,0 mm 16,1 km/h (3 Bft) W 270 5 min 13,2 C 29,5 km/h (5 Bft)
16.06.2016 12:05 19,8 C 24,0 C 63 % 1005,1 hPa 0,0 mm 18,2 km/h (3 Bft) W 270 5 min 12,5 C 14,6 km/h (3 Bft)
16.06.2016 12:10 20,0 C 24,1 C 64 % 1005,1 hPa 0,0 mm 16,4 km/h (3 Bft) W 270 0 min 13,0 C 19,4 km/h (3 Bft)
16.06.2016 12:15 19,9 C 24,5 C 63 % 1005,4 hPa 0,0 mm 14,6 km/h (3 Bft) W 270 5 min 12,6 C 11,3 km/h (2 Bft)
16.06.2016 12:20 20,0 C 24,7 C 63 % 1005,4 hPa 0,0 mm 14,6 km/h (3 Bft) W-NW 292 5 min 12,7 C 20,3 km/h (4 Bft)
16.06.2016 12:21 19,7 C 24,5 C 62 % 1005,4 hPa 0,0 mm 13,7 km/h (3 Bft) W-SW 247 1 min 12,2 C 21,5 km/h (4 Bft)
16.06.2016 12:26 19,7 C 24,5 C 62 % 1005,4 hPa 0,0 mm 13,7 km/h (3 Bft) W-SW 247 5 min 12,2 C 21,5 km/h (4 Bft)
16.06.2016 12:30 19,8 C 24,2 C 62 % 1005,4 hPa 0,0 mm 13,7 km/h (3 Bft) W-SW 247 4 min 12,3 C 18,8 km/h (3 Bft)
16.06.2016 12:35 19,2 C 23,9 C 63 % 1005,8 hPa 0,0 mm 15,2 km/h (3 Bft) W-NW 292 5 min 12,0 C 40,2 km/h (6 Bft)
16.06.2016 12:40 19,5 C 23,7 C 65 % 1005,8 hPa 0,0 mm 17,9 km/h (3 Bft) NW 315 0 min 12,7 C 33,1 km/h (5 Bft)
16.06.2016 12:45 19,7 C 24,0 C 66 % 1005,8 hPa 0,0 mm 15,5 km/h (3 Bft) S 180 0 min 13,2 C 16,1 km/h (3 Bft)
16.06.2016 12:50 19,6 C 24,5 C 64 % 1005,8 hPa 0,0 mm 14,9 km/h (3 Bft) W 270 5 min 12,6 C 20,0 km/h (4 Bft)
16.06.2016 12:55 19,8 C 24,2 C 66 % 1005,9 hPa 0,0 mm 15,8 km/h (3 Bft) W 270 0 min 13,3 C 27,7 km/h (4 Bft)
16.06.2016 13:00 19,8 C 24,3 C 65 % 1005,9 hPa 0,0 mm 16,4 km/h (3 Bft) W-SW 247 5 min 13,0 C 16,7 km/h (3 Bft)
16.06.2016 13:05 19,2 C 23,3 C 65 % 1005,9 hPa 0,0 mm 16,7 km/h (3 Bft) W-SW 247 5 min 12,5 C 16,4 km/h (3 Bft)
16.06.2016 13:10 18,8 C 22,6 C 65 % 1005,9 hPa 0,0 mm 15,5 km/h (3 Bft) W-NW 292 5 min 12,1 C 19,1 km/h (3 Bft)
16.06.2016 13:15 18,0 C 21,0 C 66 % 1006,4 hPa 0,0 mm 14,3 km/h (3 Bft) W 270 0 min 11,6 C 21,2 km/h (4 Bft)
16.06.2016 13:20 17,8 C 20,4 C 67 % 1006,4 hPa 0,0 mm 14,3 km/h (3 Bft) W 270 0 min 11,6 C 14,3 km/h (3 Bft)
16.06.2016 13:25 17,7 C 20,1 C 67 % 1006,4 hPa 0,0 mm 14,0 km/h (3 Bft) W-NW 292 0 min 11,5 C 8,9 km/h (2 Bft)
16.06.2016 13:30 17,6 C 20,3 C 67 % 1006,4 hPa 0,0 mm 12,5 km/h (3 Bft) N-NO 22 0 min 11,4 C 9,5 km/h (2 Bft)
16.06.2016 13:35 17,9 C 20,6 C 68 % 1006,3 hPa 0,0 mm 11,3 km/h (2 Bft) O-SO 112 0 min 11,9 C 7,2 km/h (2 Bft)
16.06.2016 13:40 18,2 C 21,0 C 68 % 1006,3 hPa 0,0 mm 9,8 km/h (2 Bft) NW 315 0 min 12,2 C 5,4 km/h (1 Bft)
16.06.2016 13:45 18,3 C 21,8 C 67 % 1006,3 hPa 0,0 mm 10,1 km/h (2 Bft) W 270 0 min 12,1 C 17,9 km/h (3 Bft)
16.06.2016 13:50 18,2 C 21,8 C 67 % 1006,3 hPa 0,0 mm 11,0 km/h (2 Bft) W 270 5 min 12,0 C 8,3 km/h (2 Bft)
16.06.2016 13:55 17,7 C 20,9 C 67 % 1006,5 hPa 0,0 mm 11,0 km/h (2 Bft) W 270 5 min 11,5 C 28,9 km/h (5 Bft)
16.06.2016 14:00 17,5 C 20,3 C 67 % 1006,5 hPa 0,0 mm 11,0 km/h (2 Bft) W-SW 247 0 min 11,3 C 11,3 km/h (2 Bft)
16.06.2016 14:05 18,4 C 22,4 C 67 % 1006,5 hPa 0,0 mm 11,3 km/h (2 Bft) W 270 5 min 12,2 C 16,1 km/h (3 Bft)
16.06.2016 14:10 18,4 C 22,7 C 66 % 1006,5 hPa 0,0 mm 10,1 km/h (2 Bft) W-NW 292 5 min 11,9 C 13,1 km/h (3 Bft)
16.06.2016 14:15 17,6 C 21,3 C 66 % 1006,8 hPa 0,0 mm 10,4 km/h (2 Bft) W-SW 247 5 min 11,2 C 10,7 km/h (2 Bft)
16.06.2016 14:20 17,5 C 20,7 C 67 % 1006,8 hPa 0,0 mm 11,3 km/h (2 Bft) NW 315 5 min 11,3 C 15,8 km/h (3 Bft)
16.06.2016 14:25 17,4 C 19,9 C 67 % 1006,8 hPa 0,0 mm 10,4 km/h (2 Bft) W 270 0 min 11,2 C 6,3 km/h (2 Bft)
16.06.2016 14:30 17,2 C 19,4 C 68 % 1006,8 hPa 0,0 mm 9,5 km/h (2 Bft) W-NW 292 0 min 11,2 C 11,0 km/h (2 Bft)
16.06.2016 14:35 16,8 C 18,5 C 68 % 1006,8 hPa 0,0 mm 9,5 km/h (2 Bft) NW 315 0 min 10,9 C 7,7 km/h (2 Bft)
16.06.2016 14:40 16,6 C 18,0 C 68 % 1006,8 hPa 0,0 mm 11,6 km/h (2 Bft) W 270 0 min 10,7 C 14,3 km/h (3 Bft)
16.06.2016 14:45 16,4 C 17,5 C 68 % 1006,8 hPa 0,0 mm 11,9 km/h (2 Bft) W 270 0 min 10,5 C 12,5 km/h (3 Bft)
16.06.2016 14:50 16,4 C 17,3 C 69 % 1006,8 hPa 0,0 mm 10,4 km/h (2 Bft) NW 315 0 min 10,7 C 4,8 km/h (1 Bft)
16.06.2016 14:55 16,3 C 17,3 C 69 % 1006,6 hPa 0,0 mm 8,0 km/h (2 Bft) W-SW 247 0 min 10,6 C 14,3 km/h (3 Bft)
16.06.2016 15:00 16,2 C 17,1 C 69 % 1006,6 hPa 0,0 mm 7,7 km/h (2 Bft) N-NW 337 0 min 10,5 C 14,6 km/h (3 Bft)
16.06.2016 15:05 16,2 C 16,8 C 69 % 1006,6 hPa 0,0 mm 7,7 km/h (2 Bft) N-NW 337 0 min 10,5 C 12,5 km/h (3 Bft)
16.06.2016 15:10 16,1 C 16,7 C 69 % 1006,6 hPa 0,0 mm 8,6 km/h (2 Bft) N 360 0 min 10,4 C 22,4 km/h (4 Bft)
16.06.2016 15:15 15,9 C 16,4 C 69 % 1006,8 hPa 0,0 mm 12,5 km/h (3 Bft) NW 315 0 min 10,2 C 10,1 km/h (2 Bft)
16.06.2016 15:20 15,8 C 16,2 C 69 % 1006,8 hPa 0,0 mm 11,9 km/h (2 Bft) W-NW 292 0 min 10,1 C 17,6 km/h (3 Bft)
16.06.2016 15:25 15,7 C 15,7 C 70 % 1006,8 hPa 0,0 mm 9,8 km/h (2 Bft) W-NW 292 0 min 10,2 C 11,0 km/h (2 Bft)
16.06.2016 15:26 15,5 C 15,5 C 71 % 1006,8 hPa 0,0 mm 9,5 km/h (2 Bft) W 270 0 min 10,3 C 10,7 km/h (2 Bft)
16.06.2016 15:27 15,5 C 15,5 C 71 % 1006,8 hPa 0,0 mm 9,5 km/h (2 Bft) W 270 0 min 10,3 C 10,7 km/h (2 Bft)
16.06.2016 15:30 15,5 C 15,5 C 71 % 1006,8 hPa 0,0 mm 9,5 km/h (2 Bft) W 270 0 min 10,3 C 10,7 km/h (2 Bft)
16.06.2016 15:35 15,2 C 15,0 C 72 % 1006,8 hPa 0,0 mm 10,1 km/h (2 Bft) SW 225 0 min 10,2 C 10,1 km/h (2 Bft)
16.06.2016 15:40 15,0 C 14,8 C 72 % 1006,8 hPa 0,0 mm 9,2 km/h (2 Bft) S 180 0 min 10,0 C 8,9 km/h (2 Bft)
16.06.2016 15:45 14,8 C 14,6 C 73 % 1006,8 hPa 0,0 mm 6,6 km/h (2 Bft) W 270 0 min 10,0 C 3,3 km/h (1 Bft)
16.06.2016 15:50 14,7 C 14,6 C 73 % 1006,8 hPa 0,0 mm 7,2 km/h (2 Bft) W 270 0 min 9,9 C 8,6 km/h (2 Bft)
16.06.2016 15:55 14,6 C 14,4 C 74 % 1006,5 hPa 0,0 mm 6,3 km/h (2 Bft) W-NW 292 0 min 10,0 C 5,4 km/h (1 Bft)
16.06.2016 16:00 14,6 C 14,3 C 74 % 1006,5 hPa 0,0 mm 6,3 km/h (2 Bft) W-NW 292 0 min 10,0 C 10,7 km/h (2 Bft)
16.06.2016 16:05 14,4 C 14,2 C 75 % 1006,5 hPa 0,0 mm 8,6 km/h (2 Bft) W-SW 247 0 min 10,0 C 10,4 km/h (2 Bft)
16.06.2016 16:10 14,3 C 14,2 C 75 % 1006,5 hPa 0,0 mm 8,6 km/h (2 Bft) W 270 0 min 9,9 C 14,0 km/h (3 Bft)
16.06.2016 16:15 14,2 C 14,1 C 76 % 1006,8 hPa 0,0 mm 6,6 km/h (2 Bft) N-NW 337 0 min 10,0 C 4,2 km/h (1 Bft)
16.06.2016 16:20 14,1 C 14,1 C 76 % 1006,8 hPa 0,0 mm 6,0 km/h (2 Bft) W-NW 292 0 min 9,9 C 0,0 km/h (0 Bft)
16.06.2016 16:25 14,1 C 14,1 C 76 % 1006,8 hPa 0,0 mm 1,5 km/h (1 Bft) W-SW 247 0 min 9,9 C 0,0 km/h (0 Bft)
16.06.2016 16:30 14,0 C 14,1 C 76 % 1006,8 hPa 0,0 mm 0,3 km/h (0 Bft) O-NO 67 0 min 9,8 C 0,0 km/h (0 Bft)
16.06.2016 16:35 14,0 C 14,1 C 76 % 1006,7 hPa 0,0 mm 0,9 km/h (0 Bft) W-NW 292 0 min 9,8 C 6,0 km/h (2 Bft)
16.06.2016 16:40 14,0 C 14,1 C 76 % 1006,7 hPa 0,0 mm 2,4 km/h (1 Bft) S 180 0 min 9,8 C 8,9 km/h (2 Bft)
16.06.2016 16:45 13,9 C 14,1 C 77 % 1006,7 hPa 0,0 mm 3,6 km/h (1 Bft) S 180 0 min 9,9 C 3,3 km/h (1 Bft)
16.06.2016 16:50 13,9 C 14,1 C 77 % 1006,7 hPa 0,0 mm 2,1 km/h (1 Bft) W-NW 292 0 min 9,9 C 0,0 km/h (0 Bft)
16.06.2016 16:55 13,9 C 14,0 C 77 % 1006,4 hPa 0,0 mm 2,4 km/h (1 Bft) W-SW 247 0 min 9,9 C 7,2 km/h (2 Bft)
16.06.2016 17:00 13,9 C 14,0 C 77 % 1006,4 hPa 0,0 mm 2,7 km/h (1 Bft) W 270 0 min 9,9 C 4,2 km/h (1 Bft)
16.06.2016 17:05 13,9 C 14,0 C 77 % 1006,4 hPa 0,0 mm 0,6 km/h (0 Bft) S-SO 157 0 min 9,9 C 0,0 km/h (0 Bft)
16.06.2016 17:10 13,9 C 13,9 C 77 % 1006,4 hPa 0,0 mm 1,2 km/h (1 Bft) W-NW 292 0 min 9,9 C 0,0 km/h (0 Bft)
16.06.2016 17:15 13,8 C 13,8 C 77 % 1006,4 hPa 0,0 mm 2,1 km/h (1 Bft) N-NO 22 0 min 9,8 C 0,0 km/h (0 Bft)
16.06.2016 17:20 13,8 C 13,8 C 77 % 1006,4 hPa 0,0 mm 2,1 km/h (1 Bft) NW 315 0 min 9,8 C 0,0 km/h (0 Bft)
16.06.2016 17:25 13,8 C 13,7 C 76 % 1006,4 hPa 0,0 mm 3,0 km/h (1 Bft) W-SW 247 0 min 9,6 C 5,7 km/h (1 Bft)
16.06.2016 17:30 13,7 C 13,8 C 75 % 1006,4 hPa 0,0 mm 5,1 km/h (1 Bft) S-SW 202 0 min 9,3 C 0,0 km/h (0 Bft)
16.06.2016 17:35 13,7 C 13,8 C 75 % 1006,4 hPa 0,0 mm 3,0 km/h (1 Bft) S 180 0 min 9,3 C 0,0 km/h (0 Bft)
16.06.2016 17:40 13,7 C 13,8 C 75 % 1006,4 hPa 0,0 mm 1,2 km/h (1 Bft) W-SW 247 0 min 9,3 C 6,3 km/h (2 Bft)
16.06.2016 17:45 13,6 C 13,4 C 75 % 1006,4 hPa 0,0 mm 0,9 km/h (0 Bft) W 270 0 min 9,3 C 0,0 km/h (0 Bft)
16.06.2016 17:50 13,4 C 13,2 C 75 % 1006,4 hPa 0,0 mm 0,6 km/h (0 Bft) W-NW 292 0 min 9,1 C 0,0 km/h (0 Bft)
16.06.2016 17:55 13,0 C 12,8 C 76 % 1006,5 hPa 0,0 mm 0,0 km/h (0 Bft) S 180 0 min 8,9 C 0,0 km/h (0 Bft)
16.06.2016 18:00 12,9 C 12,5 C 76 % 1006,5 hPa 0,7 mm 0,0 km/h (0 Bft) SO 135 0 min 8,8 C 0,0 km/h (0 Bft)
16.06.2016 18:05 12,4 C 12,2 C 78 % 1006,5 hPa 0,0 mm 0,0 km/h (0 Bft) O-SO 112 0 min 8,7 C 0,0 km/h (0 Bft)
16.06.2016 18:10 12,3 C 12,1 C 78 % 1006,5 hPa 0,0 mm 0,0 km/h (0 Bft) SW 225 0 min 8,6 C 0,0 km/h (0 Bft)
16.06.2016 18:15 12,3 C 12,2 C 78 % 1006,7 hPa 0,0 mm 0,0 km/h (0 Bft) S 180 0 min 8,6 C 0,0 km/h (0 Bft)
16.06.2016 18:20 12,2 C 12,1 C 79 % 1006,7 hPa 0,0 mm 0,0 km/h (0 Bft) S-SO 157 0 min 8,7 C 0,0 km/h (0 Bft)
16.06.2016 18:25 12,1 C 12,0 C 79 % 1006,7 hPa 0,0 mm 1,2 km/h (1 Bft) S-SW 202 0 min 8,6 C 10,7 km/h (2 Bft)
16.06.2016 18:26 12,2 C 11,9 C 79 % 1006,7 hPa 0,0 mm 3,3 km/h (1 Bft) SW 225 0 min 8,7 C 6,6 km/h (2 Bft)
16.06.2016 18:28 12,2 C 11,9 C 79 % 1006,7 hPa 0,0 mm 3,3 km/h (1 Bft) SW 225 0 min 8,7 C 6,6 km/h (2 Bft)
16.06.2016 18:30 12,2 C 11,9 C 79 % 1006,7 hPa 0,0 mm 3,3 km/h (1 Bft) SW 225 0 min 8,7 C 6,6 km/h (2 Bft)
16.06.2016 18:35 12,2 C 11,9 C 79 % 1006,8 hPa 0,0 mm 5,1 km/h (1 Bft) S 180 0 min 8,7 C 0,0 km/h (0 Bft)
16.06.2016 18:40 12,2 C 11,8 C 79 % 1006,8 hPa 0,0 mm 3,9 km/h (1 Bft) W 270 0 min 8,7 C 6,3 km/h (2 Bft)
16.06.2016 18:45 12,2 C 11,8 C 79 % 1006,8 hPa 0,0 mm 2,4 km/h (1 Bft) S 180 0 min 8,7 C 0,0 km/h (0 Bft)
16.06.2016 18:50 12,1 C 11,7 C 79 % 1006,8 hPa 0,0 mm 2,4 km/h (1 Bft) W-SW 247 0 min 8,6 C 0,0 km/h (0 Bft)
16.06.2016 18:55 12,0 C 11,5 C 79 % 1006,7 hPa 0,0 mm 1,5 km/h (1 Bft) O 90 0 min 8,5 C 0,0 km/h (0 Bft)
16.06.2016 19:00 11,8 C 11,4 C 79 % 1006,7 hPa 0,0 mm 1,2 km/h (1 Bft) O-SO 112 0 min 8,3 C 0,0 km/h (0 Bft)
16.06.2016 19:05 11,7 C 11,4 C 79 % 1006,7 hPa 0,0 mm 0,3 km/h (0 Bft) SW 225 0 min 8,2 C 0,0 km/h (0 Bft)
16.06.2016 19:10 11,7 C 11,3 C 80 % 1006,7 hPa 0,0 mm 0,0 km/h (0 Bft) W 270 0 min 8,4 C 0,0 km/h (0 Bft)
16.06.2016 19:15 11,6 C 11,3 C 80 % 1007,1 hPa 0,7 mm 1,2 km/h (1 Bft) S-SW 202 0 min 8,3 C 4,5 km/h (1 Bft)
16.06.2016 19:20 11,6 C 11,3 C 80 % 1007,1 hPa 0,0 mm 1,2 km/h (1 Bft) SW 225 0 min 8,3 C 0,0 km/h (0 Bft)
16.06.2016 19:25 11,4 C 11,1 C 81 % 1007,1 hPa 0,0 mm 2,4 km/h (1 Bft) NO 45 0 min 8,3 C 0,0 km/h (0 Bft)
16.06.2016 19:30 11,4 C 11,1 C 81 % 1007,1 hPa 0,0 mm 2,4 km/h (1 Bft) S-SW 202 0 min 8,3 C 0,0 km/h (0 Bft)
16.06.2016 19:35 11,4 C 11,1 C 81 % 1006,9 hPa 0,0 mm 2,1 km/h (1 Bft) S-SW 202 0 min 8,3 C 14,3 km/h (3 Bft)
16.06.2016 19:40 11,3 C 11,0 C 81 % 1006,9 hPa 0,7 mm 3,6 km/h (1 Bft) S 180 0 min 8,2 C 4,8 km/h (1 Bft)
16.06.2016 19:45 11,3 C 10,9 C 82 % 1006,9 hPa 0,0 mm 4,2 km/h (1 Bft) SW 225 0 min 8,3 C 5,4 km/h (1 Bft)
16.06.2016 19:50 11,1 C 10,8 C 82 % 1006,9 hPa 0,0 mm 3,9 km/h (1 Bft) W-SW 247 0 min 8,1 C 4,8 km/h (1 Bft)
16.06.2016 19:55 11,1 C 10,7 C 82 % 1007,2 hPa 0,7 mm 6,9 km/h (2 Bft) SW 225 0 min 8,1 C 4,8 km/h (1 Bft)
16.06.2016 20:00 11,0 C 10,7 C 82 % 1007,2 hPa 0,0 mm 5,7 km/h (1 Bft) S 180 0 min 8,0 C 8,3 km/h (2 Bft)
16.06.2016 20:05 10,9 C 10,6 C 83 % 1007,2 hPa 0,7 mm 3,0 km/h (1 Bft) S-SO 157 0 min 8,1 C 0,0 km/h (0 Bft)
16.06.2016 20:10 10,9 C 10,6 C 83 % 1007,2 hPa 0,0 mm 1,8 km/h (1 Bft) S 180 0 min 8,1 C 0,0 km/h (0 Bft)
16.06.2016 20:15 10,8 C 10,5 C 83 % 1007,2 hPa 0,7 mm 0,0 km/h (0 Bft) S-SW 202 0 min 8,0 C 0,0 km/h (0 Bft)
16.06.2016 20:20 10,8 C 10,5 C 83 % 1007,2 hPa 0,0 mm 0,0 km/h (0 Bft) O-SO 112 0 min 8,0 C 0,0 km/h (0 Bft)
16.06.2016 20:25 10,7 C 10,5 C 83 % 1007,2 hPa 0,7 mm 0,0 km/h (0 Bft) S-SW 202 0 min 7,9 C 0,0 km/h (0 Bft)
16.06.2016 20:30 10,7 C 10,5 C 83 % 1007,2 hPa 0,0 mm 0,0 km/h (0 Bft) O-SO 112 0 min 7,9 C 0,0 km/h (0 Bft)
16.06.2016 20:35 10,6 C 10,4 C 83 % 1006,9 hPa 0,0 mm 0,0 km/h (0 Bft) W-SW 247 0 min 7,8 C 0,0 km/h (0 Bft)
16.06.2016 20:40 10,6 C 10,4 C 83 % 1006,9 hPa 0,0 mm 0,0 km/h (0 Bft) S 180 0 min 7,8 C 0,0 km/h (0 Bft)
16.06.2016 20:45 10,6 C 10,4 C 83 % 1006,9 hPa 0,7 mm 0,0 km/h (0 Bft) S 180 0 min 7,8 C 0,0 km/h (0 Bft)
16.06.2016 20:50 10,5 C 10,4 C 84 % 1006,9 hPa 0,0 mm 0,0 km/h (0 Bft) O-SO 112 0 min 7,9 C 0,0 km/h (0 Bft)
16.06.2016 20:55 10,4 C 10,3 C 84 % 1006,8 hPa 0,0 mm 0,0 km/h (0 Bft) NW 315 0 min 7,8 C 0,0 km/h (0 Bft)
16.06.2016 21:00 10,4 C 10,3 C 84 % 1006,8 hPa 0,0 mm 0,0 km/h (0 Bft) S 180 0 min 7,8 C 0,0 km/h (0 Bft)
16.06.2016 21:05 10,4 C 10,3 C 84 % 1006,8 hPa 0,0 mm 0,0 km/h (0 Bft) SW 225 0 min 7,8 C 0,0 km/h (0 Bft)
16.06.2016 21:10 10,4 C 10,3 C 84 % 1006,8 hPa 0,7 mm 0,0 km/h (0 Bft) SW 225 0 min 7,8 C 0,0 km/h (0 Bft)
16.06.2016 21:15 10,4 C 10,3 C 84 % 1006,9 hPa 0,0 mm 0,0 km/h (0 Bft) S-SO 157 0 min 7,8 C 0,0 km/h (0 Bft)
16.06.2016 21:20 10,3 C 10,2 C 84 % 1006,9 hPa 0,0 mm 0,0 km/h (0 Bft) S 180 0 min 7,7 C 0,0 km/h (0 Bft)
16.06.2016 21:25 10,3 C 10,2 C 84 % 1006,9 hPa 0,0 mm 0,0 km/h (0 Bft) W 270 0 min 7,7 C 0,0 km/h (0 Bft)
16.06.2016 21:26 10,3 C 10,2 C 84 % 1006,9 hPa 0,7 mm 0,0 km/h (0 Bft) W-SW 247 0 min 7,7 C 0,0 km/h (0 Bft)
16.06.2016 21:29 10,3 C 10,2 C 84 % 1006,9 hPa 0,0 mm 0,0 km/h (0 Bft) W-SW 247 0 min 7,7 C 0,0 km/h (0 Bft)
16.06.2016 21:30 10,3 C 10,2 C 84 % 1006,9 hPa 0,0 mm 0,0 km/h (0 Bft) W-SW 247 0 min 7,7 C 0,0 km/h (0 Bft)
16.06.2016 21:35 10,3 C 10,2 C 85 % 1006,9 hPa 0,0 mm 0,0 km/h (0 Bft) W-SW 247 0 min 7,9 C 0,0 km/h (0 Bft)
16.06.2016 21:40 10,3 C 10,2 C 85 % 1006,9 hPa 0,0 mm 0,0 km/h (0 Bft) W-SW 247 0 min 7,9 C 0,0 km/h (0 Bft)
16.06.2016 21:45 10,3 C 10,1 C 85 % 1006,9 hPa 0,0 mm 0,0 km/h (0 Bft) SO 135 0 min 7,9 C 0,0 km/h (0 Bft)
16.06.2016 21:50 10,3 C 10,1 C 85 % 1006,9 hPa 0,0 mm 0,0 km/h (0 Bft) S-SO 157 0 min 7,9 C 0,0 km/h (0 Bft)
16.06.2016 21:55 10,3 C 10,1 C 85 % 1006,8 hPa 0,0 mm 0,0 km/h (0 Bft) W-SW 247 0 min 7,9 C 0,0 km/h (0 Bft)
16.06.2016 22:00 10,3 C 10,1 C 85 % 1006,8 hPa 0,0 mm 0,3 km/h (0 Bft) W 270 0 min 7,9 C 0,0 km/h (0 Bft)
16.06.2016 22:05 10,3 C 10,0 C 85 % 1006,8 hPa 0,0 mm 0,3 km/h (0 Bft) W 270 0 min 7,9 C 0,0 km/h (0 Bft)
16.06.2016 22:10 10,3 C 10,1 C 85 % 1006,8 hPa 0,0 mm 0,3 km/h (0 Bft) SW 225 0 min 7,9 C 0,0 km/h (0 Bft)
16.06.2016 22:15 10,3 C 10,0 C 85 % 1006,6 hPa 0,0 mm 1,2 km/h (1 Bft) S-SW 202 0 min 7,9 C 7,7 km/h (2 Bft)
16.06.2016 22:20 10,2 C 10,0 C 85 % 1006,6 hPa 0,7 mm 1,5 km/h (1 Bft) SO 135 0 min 7,8 C 0,0 km/h (0 Bft)
16.06.2016 22:25 10,1 C 10,1 C 85 % 1006,6 hPa 0,0 mm 1,2 km/h (1 Bft) O-SO 112 0 min 7,7 C 0,0 km/h (0 Bft)
16.06.2016 22:30 10,1 C 10,1 C 85 % 1006,6 hPa 0,0 mm 0,0 km/h (0 Bft) S-SW 202 0 min 7,7 C 0,0 km/h (0 Bft)
16.06.2016 22:35 10,1 C 10,0 C 85 % 1006,6 hPa 0,7 mm 0,0 km/h (0 Bft) S 180 0 min 7,7 C 0,0 km/h (0 Bft)
16.06.2016 22:40 10,1 C 10,0 C 85 % 1006,6 hPa 0,0 mm 0,0 km/h (0 Bft) SW 225 0 min 7,7 C 0,0 km/h (0 Bft)
16.06.2016 22:45 10,1 C 10,0 C 85 % 1006,6 hPa 0,0 mm 0,0 km/h (0 Bft) SW 225 0 min 7,7 C 0,0 km/h (0 Bft)
16.06.2016 22:50 10,0 C 9,9 C 85 % 1006,6 hPa 0,0 mm 0,0 km/h (0 Bft) SO 135 0 min 7,6 C 0,0 km/h (0 Bft)
16.06.2016 22:55 10,0 C 9,9 C 86 % 1006,2 hPa 0,0 mm 0,0 km/h (0 Bft) S 180 0 min 7,8 C 0,0 km/h (0 Bft)
16.06.2016 23:00 10,0 C 9,9 C 86 % 1006,2 hPa 0,0 mm 0,0 km/h (0 Bft) S 180 0 min 7,8 C 0,0 km/h (0 Bft)
16.06.2016 23:05 10,0 C 9,9 C 86 % 1006,2 hPa 0,0 mm 0,0 km/h (0 Bft) W-SW 247 0 min 7,8 C 0,0 km/h (0 Bft)
16.06.2016 23:10 10,0 C 9,9 C 86 % 1006,2 hPa 0,0 mm 0,0 km/h (0 Bft) W-SW 247 0 min 7,8 C 0,0 km/h (0 Bft)
16.06.2016 23:15 10,0 C 9,9 C 86 % 1006,4 hPa 0,0 mm 0,0 km/h (0 Bft) S-SW 202 0 min 7,8 C 0,0 km/h (0 Bft)
16.06.2016 23:20 10,0 C 9,9 C 86 % 1006,4 hPa 0,0 mm 0,0 km/h (0 Bft) SO 135 0 min 7,8 C 0,0 km/h (0 Bft)
16.06.2016 23:25 9,9 C 9,9 C 86 % 1006,4 hPa 0,0 mm 0,0 km/h (0 Bft) SO 135 0 min 7,7 C 0,0 km/h (0 Bft)
16.06.2016 23:30 9,9 C 9,8 C 86 % 1006,4 hPa 0,0 mm 0,0 km/h (0 Bft) N-NW 337 0 min 7,7 C 0,0 km/h (0 Bft)
16.06.2016 23:35 9,9 C 9,8 C 86 % 1006,2 hPa 0,0 mm 0,0 km/h (0 Bft) SW 225 0 min 7,7 C 0,0 km/h (0 Bft)
16.06.2016 23:40 9,9 C 9,8 C 86 % 1006,2 hPa 0,0 mm 0,0 km/h (0 Bft) S-SO 157 0 min 7,7 C 0,0 km/h (0 Bft)
16.06.2016 23:45 9,9 C 9,8 C 86 % 1006,2 hPa 0,7 mm 0,0 km/h (0 Bft) S 180 0 min 7,7 C 0,0 km/h (0 Bft)
16.06.2016 23:50 9,9 C 9,7 C 86 % 1006,2 hPa 0,0 mm 0,0 km/h (0 Bft) S-SO 157 0 min 7,7 C 0,0 km/h (0 Bft)
16.06.2016 23:55 9,8 C 9,7 C 87 % 1006,2 hPa 0,0 mm 0,0 km/h (0 Bft) S-SO 157 0 min 7,7 C 0,0 km/h (0 Bft)
_ Min-Zeit 23:55 23:55 12:30 10:30 - 23:55 - - - 22:50 23:55
Minimum _ 9,8 C 9,7 C 62 % 1003,2 hPa - 0,0 km/h (0 Bft) - - - 7,6 C 0,0 km/h (0 Bft)
_ Max-Zeit 11:10 11:05 23:55 20:30 23:45 12:05 - - 14:20 11:10 12:35
Maximum _ 20,7 C 27,0 C 87 % 1007,2 hPa 0,7 mm 18,2 km/h
W (3 Bft)
- - 5 min 14,6 C 40,2 km/h
W-NW (6 Bft)
Durchschnitt _ 13,4 C 14,8 C 79 % 1005,8 hPa #9,6 mm 3,9 km/h (1 Bft) W - #6:20 h 9,6 C 5,3 km/h (1 Bft)